Flag for U.S.A. Weather past 2 weeks in Sunrise, Florida, U.S.A.

Now
80 °F

Sunny.


Feels Like: 85 °F
Forecast: 74 / 87 °F
Wind: 6 mph from Southwest

Location: Fort Lauderdale Executive Airport

Current Time: Sep 30, 2014 at 10:15:48 AM

Latest Report: Sep 30, 2014 at 8:53 AM


Visibility: 10 mi

Pressure: 29.88 "Hg

Humidity: 87%

Dew point: 76 °F

Location of SunriseLocation

Historic Weather in Sunrise — Graph

°F

Sunrise temperature yesterday

Maximum temperature yesterday: 88 °F (at 2:53 PM)
Minimum temperature yesterday: 76 °F (at 2:53 AM)
Average temperature yesterday: 81 °F

Past Weeks' High & Low Weather Summary

 TemperatureHumidityPressure
High90 °F (Sep 17, 2:53 PM)100% (Sep 19, 2:53 AM)30.16 "Hg (Sep 19, 2:53 AM)
Low71 °F (Sep 21, 7:53 PM)52% (Sep 17, 2:53 PM)29.82 "Hg (Sep 29, 3:53 PM)
Average80 °F85%29.97 "Hg
* Reported Sep 15 8:53 AM — Sep 30 8:53 AM, Sunrise, Weather by CustomWeather, © 2014

Note: Actual official high and low records may vary slightly from our data, if they occured in-between our weather recording intervals... More about our weather records

Advertising

Sunrise weather history for previous 24 hours

 ConditionsComfort  
Time TempWeatherWind HumidityBarometerVisibility
8:53 AM
Sep 30
80 °FSunny.6 mph87%29.88 "Hg10 mi
7:53 AM77 °FClear.3 mph94%29.87 "Hg10 mi
6:53 AM77 °FClear.No wind88%29.85 "Hg10 mi
5:53 AM77 °FClear.No wind88%29.84 "Hg10 mi
4:53 AM76 °FClear.No wind91%29.83 "Hg10 mi
3:53 AM76 °FClear.No wind94%29.83 "Hg10 mi
2:53 AM77 °FClear.No wind88%29.85 "Hg10 mi
1:53 AM77 °FClear.No wind90%29.86 "Hg10 mi
12:53 AM77 °FClear.No wind88%29.87 "Hg10 mi
11:53 PM
Sep 29
77 °FClear.No wind90%29.88 "Hg10 mi
10:53 PM77 °FClear.5 mph90%29.89 "Hg10 mi
9:53 PM77 °FLight rain. Overcast.5 mph90%29.91 "Hg9 mi
8:53 PM77 °FThunderstorms. Passing clouds.6 mph90%29.90 "Hg10 mi
7:53 PM76 °FThunderstorms. Fog.5 mph91%29.87 "Hg4 mi
6:53 PM80 °FThunderstorms. Fog.No wind87%29.86 "Hg4 mi
5:53 PM84 °FThunderstorms. Broken clouds.10 mph70%29.84 "Hg10 mi
4:53 PM86 °FPartly sunny.12 mph65%29.83 "Hg10 mi
3:53 PM87 °FPassing clouds.10 mph63%29.82 "Hg10 mi
2:53 PM88 °FPassing clouds.10 mph61%29.84 "Hg10 mi
1:53 PM87 °FPassing clouds.9 mph59%29.87 "Hg10 mi
12:53 PM87 °FScattered clouds.10 mph61%29.90 "Hg10 mi
11:53 AM87 °FScattered clouds.7 mph61%29.92 "Hg10 mi
10:53 AM86 °FScattered clouds.8 mph65%29.92 "Hg10 mi
Weather by CustomWeather, © 2014

See weather overviewHow to use our weather pages